Time,TemperatureF,DewpointF,PressureIn,WindDirection,WindDirectionDegrees,WindSpeedMPH,WindSpeedGustMPH,Humidity,HourlyPrecipIn,Conditions,Clouds,dailyrainin,SoftwareType,DateUTC
2013-04-29 00:01:00,49.1,37.8,30.19,East,90,1.2,0.0,65,0.00,CLR,,0.00,WeatherDisplay:10.37,2013-04-29 07:01:00,
2013-04-29 00:07:00,49.3,38.0,30.19,South,180,0.0,0.0,65,0.00,CLR,,0.00,WeatherDisplay:10.37,2013-04-29 07:07:00,
2013-04-29 00:12:00,49.3,38.0,30.19,SW,225,2.3,2.3,65,0.00,CLR,,0.00,WeatherDisplay:10.37,2013-04-29 07:12:00,
2013-04-29 00:17:00,49.5,38.2,30.20,West,270,1.6,1.6,65,0.00,CLR,,0.00,WeatherDisplay:10.37,2013-04-29 07:17:00,
2013-04-29 00:22:00,49.5,38.2,30.21,NW,315,1.2,0.0,65,0.00,CLR,,0.00,WeatherDisplay:10.37,2013-04-29 07:22:00,
2013-04-29 00:28:00,49.8,38.5,30.21,South,180,1.2,0.0,65,0.00,CLR,,0.00,WeatherDisplay:10.37,2013-04-29 07:28:00,
2013-04-29 00:33:00,49.8,38.5,30.21,South,180,1.2,1.2,65,0.00,CLR,,0.00,WeatherDisplay:10.37,2013-04-29 07:33:00,
2013-04-29 00:38:00,49.8,38.5,30.21,South,180,1.2,0.0,65,0.00,CLR,,0.00,WeatherDisplay:10.37,2013-04-29 07:38:00,
2013-04-29 00:43:00,49.8,38.5,30.21,South,180,1.2,0.0,65,0.00,CLR,,0.00,WeatherDisplay:10.37,2013-04-29 07:43:00,
2013-04-29 00:49:00,50.0,38.7,30.22,SW,225,0.0,0.0,65,0.00,CLR,,0.00,WeatherDisplay:10.37,2013-04-29 07:49:00,
2013-04-29 00:54:00,50.0,38.7,30.21,South,180,1.2,1.2,65,0.00,CLR,,0.00,WeatherDisplay:10.37,2013-04-29 07:54:00,
2013-04-29 00:59:00,50.0,38.3,30.21,South,180,1.2,0.0,64,0.00,CLR,,0.00,WeatherDisplay:10.37,2013-04-29 07:59:00,
2013-04-29 01:04:00,50.0,38.3,30.21,West,270,0.0,0.0,64,0.00,CLR,,0.00,WeatherDisplay:10.37,2013-04-29 08:04:00,
2013-04-29 01:10:00,50.0,38.3,30.21,SW,225,0.0,0.0,64,0.00,CLR,,0.00,WeatherDisplay:10.37,2013-04-29 08:10:00,
2013-04-29 01:15:00,50.0,38.3,30.21,West,270,0.0,0.0,64,0.00,CLR,,0.00,WeatherDisplay:10.37,2013-04-29 08:15:00,
2013-04-29 01:20:00,50.2,38.5,30.21,SW,225,0.0,0.0,64,0.00,CLR,,0.00,WeatherDisplay:10.37,2013-04-29 08:20:00,
2013-04-29 01:25:00,50.2,38.5,30.20,West,270,0.0,0.0,64,0.00,CLR,,0.00,WeatherDisplay:10.37,2013-04-29 08:25:00,
2013-04-29 01:31:00,50.4,38.6,30.21,West,270,1.2,0.0,64,0.00,CLR,,0.00,WeatherDisplay:10.37,2013-04-29 08:31:00,
2013-04-29 01:36:00,50.4,38.6,30.21,SW,225,1.2,0.0,64,0.00,CLR,,0.00,WeatherDisplay:10.37,2013-04-29 08:36:00,
2013-04-29 01:41:00,50.5,38.8,30.21,South,180,1.6,1.6,64,0.00,CLR,,0.00,WeatherDisplay:10.37,2013-04-29 08:41:00,
2013-04-29 01:46:00,50.5,38.8,30.20,South,180,1.2,0.0,64,0.00,CLR,,0.00,WeatherDisplay:10.37,2013-04-29 08:46:00,
2013-04-29 01:52:00,50.5,39.2,30.20,South,180,0.0,0.0,65,0.00,CLR,,0.00,WeatherDisplay:10.37,2013-04-29 08:52:00,
2013-04-29 01:57:00,50.5,39.2,30.21,West,270,1.2,0.0,65,0.00,CLR,,0.00,WeatherDisplay:10.37,2013-04-29 08:57:00,
2013-04-29 02:02:00,50.7,39.4,30.21,SW,225,1.2,0.0,65,0.00,CLR,,0.00,WeatherDisplay:10.37,2013-04-29 09:02:00,
2013-04-29 02:07:00,50.7,39.0,30.20,SW,225,0.0,0.0,64,0.00,CLR,,0.00,WeatherDisplay:10.37,2013-04-29 09:07:00,
2013-04-29 02:13:00,50.7,39.0,30.20,West,270,1.2,0.0,64,0.00,CLR,,0.00,WeatherDisplay:10.37,2013-04-29 09:13:00,
2013-04-29 02:18:00,50.7,39.0,30.21,SW,225,1.2,0.0,64,0.00,CLR,,0.00,WeatherDisplay:10.37,2013-04-29 09:18:00,
2013-04-29 02:23:00,50.9,39.1,30.20,SW,225,0.0,0.0,64,0.00,CLR,,0.00,WeatherDisplay:10.37,2013-04-29 09:23:00,
2013-04-29 02:28:00,50.9,39.1,30.20,SW,225,0.0,0.0,64,0.00,CLR,,0.00,WeatherDisplay:10.37,2013-04-29 09:28:00,
2013-04-29 02:34:00,50.9,39.1,30.20,SW,225,1.2,1.2,64,0.00,CLR,,0.00,WeatherDisplay:10.37,2013-04-29 09:34:00,
2013-04-29 02:39:00,50.9,39.5,30.19,South,180,1.2,0.0,65,0.00,CLR,,0.00,WeatherDisplay:10.37,2013-04-29 09:39:00,
2013-04-29 02:44:00,50.9,39.5,30.19,South,180,1.2,0.0,65,0.00,CLR,,0.00,WeatherDisplay:10.37,2013-04-29 09:44:00,
2013-04-29 02:49:00,50.9,39.5,30.19,South,180,0.0,0.0,65,0.00,CLR,,0.00,WeatherDisplay:10.37,2013-04-29 09:49:00,
2013-04-29 02:55:00,50.9,39.5,30.19,South,180,1.2,0.0,65,0.00,CLR,,0.00,WeatherDisplay:10.37,2013-04-29 09:55:00,
2013-04-29 03:00:00,50.9,39.9,30.19,South,180,1.2,0.0,66,0.00,CLR,,0.00,WeatherDisplay:10.37,2013-04-29 10:00:00,
2013-04-29 03:05:00,50.9,39.9,30.19,South,180,1.2,0.0,66,0.00,CLR,,0.00,WeatherDisplay:10.37,2013-04-29 10:05:00,
2013-04-29 03:10:00,50.9,40.3,30.19,South,180,0.0,0.0,67,0.00,CLR,,0.00,WeatherDisplay:10.37,2013-04-29 10:10:00,
2013-04-29 03:16:00,50.9,40.3,30.19,West,270,1.2,0.0,67,0.00,CLR,,0.00,WeatherDisplay:10.37,2013-04-29 10:16:00,
2013-04-29 03:21:00,50.9,40.3,30.19,West,270,0.0,0.0,67,0.00,CLR,,0.00,WeatherDisplay:10.37,2013-04-29 10:21:00,
2013-04-29 03:26:00,50.9,40.7,30.19,SW,225,2.3,2.3,68,0.00,CLR,,0.00,WeatherDisplay:10.37,2013-04-29 10:26:00,
2013-04-29 03:31:00,50.9,40.7,30.19,South,180,1.2,0.0,68,0.00,CLR,,0.00,WeatherDisplay:10.37,2013-04-29 10:31:00,
2013-04-29 03:37:00,50.9,40.7,30.19,South,180,0.7,0.0,68,0.00,CLR,,0.00,WeatherDisplay:10.37,2013-04-29 10:37:00,
2013-04-29 03:42:00,50.9,41.1,30.18,South,180,0.0,0.0,69,0.00,CLR,,0.00,WeatherDisplay:10.37,2013-04-29 10:42:00,
2013-04-29 03:47:00,50.9,41.1,30.18,South,180,0.0,0.0,69,0.00,CLR,,0.00,WeatherDisplay:10.37,2013-04-29 10:47:00,
2013-04-29 03:52:00,50.9,41.1,30.19,South,180,0.0,0.0,69,0.00,CLR,,0.00,WeatherDisplay:10.37,2013-04-29 10:52:00,
2013-04-29 03:58:00,51.1,41.3,30.18,South,180,1.2,0.0,69,0.00,CLR,,0.00,WeatherDisplay:10.37,2013-04-29 10:58:00,
2013-04-29 04:03:00,50.9,41.1,30.18,South,180,0.0,0.0,69,0.00,CLR,,0.00,WeatherDisplay:10.37,2013-04-29 11:03:00,
2013-04-29 04:08:00,51.1,41.3,30.18,South,180,0.0,0.0,69,0.00,CLR,,0.00,WeatherDisplay:10.37,2013-04-29 11:08:00,
2013-04-29 04:13:00,51.1,41.3,30.18,West,270,1.2,0.0,69,0.00,CLR,,0.00,WeatherDisplay:10.37,2013-04-29 11:13:00,
2013-04-29 04:19:00,51.1,41.6,30.19,NW,315,0.0,0.0,70,0.00,CLR,,0.00,WeatherDisplay:10.37,2013-04-29 11:19:00,
2013-04-29 04:24:00,51.1,41.6,30.19,SW,225,1.2,0.0,70,0.00,CLR,,0.00,WeatherDisplay:10.37,2013-04-29 11:24:00,
2013-04-29 04:29:00,51.1,41.6,30.18,SW,225,2.3,2.3,70,0.00,CLR,,0.00,WeatherDisplay:10.37,2013-04-29 11:29:00,
2013-04-29 04:34:00,51.1,42.0,30.18,SW,225,2.3,2.3,71,0.00,CLR,,0.00,WeatherDisplay:10.37,2013-04-29 11:34:00,
2013-04-29 04:40:00,51.1,42.0,30.17,SW,225,3.5,3.5,71,0.00,CLR,,0.00,WeatherDisplay:10.37,2013-04-29 11:40:00,
2013-04-29 04:45:00,51.1,42.4,30.18,South,180,2.3,2.3,72,0.00,CLR,,0.00,WeatherDisplay:10.37,2013-04-29 11:45:00,
2013-04-29 04:50:00,51.1,42.4,30.17,South,180,3.5,3.5,72,0.00,CLR,,0.00,WeatherDisplay:10.37,2013-04-29 11:50:00,
2013-04-29 04:55:00,51.1,42.7,30.17,SW,225,3.5,3.5,73,0.00,CLR,,0.00,WeatherDisplay:10.37,2013-04-29 11:55:00,
2013-04-29 05:01:00,50.9,42.6,30.17,SW,225,2.3,0.0,73,0.00,CLR,,0.00,WeatherDisplay:10.37,2013-04-29 12:01:00,
2013-04-29 05:06:00,51.1,42.7,30.17,SW,225,1.2,0.0,73,0.00,CLR,,0.00,WeatherDisplay:10.37,2013-04-29 12:06:00,
2013-04-29 05:11:00,51.1,43.1,30.17,SW,225,1.2,0.0,74,0.00,CLR,,0.00,WeatherDisplay:10.37,2013-04-29 12:11:00,
2013-04-29 05:16:00,51.1,43.1,30.17,SW,225,1.2,0.0,74,0.01,RA,,0.01,WeatherDisplay:10.37,2013-04-29 12:16:00,
2013-04-29 05:22:00,51.1,43.1,30.17,SW,225,0.0,0.0,74,0.01,RA,,0.01,WeatherDisplay:10.37,2013-04-29 12:22:00,
2013-04-29 05:27:00,51.1,43.1,30.16,SW,225,1.2,0.0,74,0.01,CLR,,0.01,WeatherDisplay:10.37,2013-04-29 12:27:00,
2013-04-29 05:32:00,51.1,43.1,30.16,SW,225,1.2,0.0,74,0.01,CLR,,0.01,WeatherDisplay:10.37,2013-04-29 12:32:00,
2013-04-29 05:37:00,51.1,43.1,30.16,SW,225,1.2,0.0,74,0.01,CLR,,0.01,WeatherDisplay:10.37,2013-04-29 12:37:00,
2013-04-29 05:43:00,51.1,43.1,30.16,SW,225,1.2,0.0,74,0.01,CLR,,0.01,WeatherDisplay:10.37,2013-04-29 12:43:00,
2013-04-29 05:48:00,51.1,43.1,30.16,SW,225,0.0,0.0,74,0.01,CLR,,0.01,WeatherDisplay:10.37,2013-04-29 12:48:00,
2013-04-29 05:53:00,51.1,43.4,30.15,SW,225,1.2,0.0,75,0.01,CLR,,0.01,WeatherDisplay:10.37,2013-04-29 12:53:00,
2013-04-29 05:58:00,51.1,43.4,30.16,SW,225,1.2,0.0,75,0.01,CLR,,0.01,WeatherDisplay:10.37,2013-04-29 12:58:00,
2013-04-29 06:04:00,51.1,43.4,30.15,SW,225,1.2,0.0,75,0.01,CLR,,0.01,WeatherDisplay:10.37,2013-04-29 13:04:00,
2013-04-29 06:09:00,51.1,43.4,30.15,SW,225,1.2,0.0,75,0.01,CLR,,0.01,WeatherDisplay:10.37,2013-04-29 13:09:00,
2013-04-29 06:14:00,51.1,43.4,30.15,SW,225,1.2,0.0,75,0.00,CLR,,0.01,WeatherDisplay:10.37,2013-04-29 13:14:00,
2013-04-29 06:19:00,51.3,43.6,30.15,West,270,0.0,0.0,75,0.00,CLR,,0.01,WeatherDisplay:10.37,2013-04-29 13:19:00,
2013-04-29 06:25:00,51.3,43.6,30.15,SW,225,1.2,0.0,75,0.00,CLR,,0.01,WeatherDisplay:10.37,2013-04-29 13:25:00,
2013-04-29 06:30:00,51.3,43.6,30.16,SW,225,1.6,0.0,75,0.00,CLR,,0.01,WeatherDisplay:10.37,2013-04-29 13:30:00,
2013-04-29 06:35:00,51.3,43.6,30.16,SW,225,1.2,0.0,75,0.00,CLR,,0.01,WeatherDisplay:10.37,2013-04-29 13:35:00,
2013-04-29 06:40:00,51.3,43.6,30.15,SW,225,1.2,0.0,75,0.00,CLR,,0.01,WeatherDisplay:10.37,2013-04-29 13:40:00,
2013-04-29 06:46:00,51.3,43.6,30.16,SW,225,0.0,0.0,75,0.00,CLR,,0.01,WeatherDisplay:10.37,2013-04-29 13:46:00,
2013-04-29 06:51:00,51.4,43.8,30.16,SW,225,1.2,0.0,75,0.00,CLR,,0.01,WeatherDisplay:10.37,2013-04-29 13:51:00,
2013-04-29 06:56:00,51.4,43.8,30.16,SW,225,1.2,1.2,75,0.01,RA,,0.02,WeatherDisplay:10.37,2013-04-29 13:56:00,
2013-04-29 07:01:00,51.4,44.1,30.16,SW,225,2.3,2.3,76,0.01,RA,,0.02,WeatherDisplay:10.37,2013-04-29 14:01:00,
2013-04-29 07:07:00,51.4,44.1,30.16,SW,225,1.2,0.0,76,0.01,CLR,,0.02,WeatherDisplay:10.37,2013-04-29 14:07:00,
2013-04-29 07:12:00,51.4,44.1,30.16,SW,225,1.2,0.0,76,0.01,CLR,,0.02,WeatherDisplay:10.37,2013-04-29 14:12:00,
2013-04-29 07:17:00,51.6,44.3,30.17,SW,225,1.6,1.6,76,0.01,CLR,,0.04,WeatherDisplay:10.37,2013-04-29 14:17:00,
2013-04-29 07:22:00,51.6,44.3,30.17,SW,225,2.3,2.3,76,0.02,RA,,0.04,WeatherDisplay:10.37,2013-04-29 14:22:00,
2013-04-29 07:28:00,51.8,44.5,30.17,SW,225,3.5,3.5,76,0.02,,,0.04,WeatherDisplay:10.37,2013-04-29 14:28:00,
2013-04-29 07:33:00,51.8,44.5,30.17,NW,315,3.5,0.0,76,0.02,CLR,,0.04,WeatherDisplay:10.37,2013-04-29 14:33:00,
2013-04-29 07:38:00,52.0,44.6,30.17,NW,315,3.5,0.0,76,0.04,RA,,0.05,WeatherDisplay:10.37,2013-04-29 14:38:00,
2013-04-29 07:43:00,52.0,44.6,30.17,SE,135,1.2,0.0,76,0.04,RA,,0.05,WeatherDisplay:10.37,2013-04-29 14:43:00,
2013-04-29 07:50:00,52.2,44.8,30.17,NW,315,2.3,2.3,76,0.02,RA,,0.05,WeatherDisplay:10.37,2013-04-29 14:50:00,
2013-04-29 07:56:00,52.2,44.8,30.17,SE,135,2.3,0.0,76,0.02,CLR,,0.05,WeatherDisplay:10.37,2013-04-29 14:56:00,
2013-04-29 08:01:00,52.2,45.2,30.17,NE,45,4.6,4.6,77,0.01,CLR,,0.05,WeatherDisplay:10.37,2013-04-29 15:01:00,
2013-04-29 08:06:00,52.2,44.8,30.17,East,90,3.5,3.5,76,0.01,CLR,,0.05,WeatherDisplay:10.37,2013-04-29 15:06:00,
2013-04-29 08:11:00,52.2,44.8,30.17,West,270,3.5,3.5,76,0.01,CLR,,0.05,WeatherDisplay:10.37,2013-04-29 15:11:00,
2013-04-29 08:16:00,52.2,44.8,30.17,NE,45,1.2,0.0,76,0.01,RA,,0.06,WeatherDisplay:10.37,2013-04-29 15:16:00,
2013-04-29 08:21:00,52.2,44.8,30.17,NE,45,2.3,0.0,76,0.01,RA,,0.06,WeatherDisplay:10.37,2013-04-29 15:21:00,
2013-04-29 08:26:00,52.0,44.6,30.17,West,270,3.5,0.0,76,0.01,,,0.06,WeatherDisplay:10.37,2013-04-29 15:26:00,
2013-04-29 08:31:00,52.2,44.8,30.17,West,270,1.2,0.0,76,0.01,CLR,,0.06,WeatherDisplay:10.37,2013-04-29 15:31:00,
2013-04-29 08:36:00,52.3,45.0,30.17,West,270,1.2,0.0,76,0.02,RA,,0.07,WeatherDisplay:10.37,2013-04-29 15:36:00,
2013-04-29 08:41:00,52.3,45.0,30.17,NE,45,2.3,0.0,76,0.02,RA,,0.07,WeatherDisplay:10.37,2013-04-29 15:41:00,
2013-04-29 08:46:00,52.3,45.0,30.18,NW,315,9.2,9.2,76,0.02,CLR,,0.07,WeatherDisplay:10.37,2013-04-29 15:46:00,
2013-04-29 08:51:00,52.2,44.8,30.18,NE,45,3.5,3.5,76,0.04,RA,,0.08,WeatherDisplay:10.37,2013-04-29 15:51:00,
2013-04-29 08:56:00,52.2,44.5,30.18,East,90,5.8,5.8,75,0.04,RA,,0.08,WeatherDisplay:10.37,2013-04-29 15:56:00,
2013-04-29 09:01:00,52.2,44.5,30.18,North,0,1.2,1.2,75,0.04,CLR,,0.08,WeatherDisplay:10.37,2013-04-29 16:01:00,
2013-04-29 09:06:00,52.5,44.8,30.19,SW,225,5.8,5.8,75,0.04,CLR,,0.08,WeatherDisplay:10.37,2013-04-29 16:06:00,
2013-04-29 09:11:00,52.3,44.3,30.19,North,0,1.2,1.2,74,0.04,CLR,,0.08,WeatherDisplay:10.37,2013-04-29 16:11:00,
2013-04-29 09:16:00,52.5,44.5,30.19,NW,315,4.6,4.6,74,0.04,RA,,0.09,WeatherDisplay:10.37,2013-04-29 16:16:00,
2013-04-29 09:21:00,52.7,44.3,30.19,North,0,2.3,0.0,73,0.04,RA,,0.09,WeatherDisplay:10.37,2013-04-29 16:21:00,
2013-04-29 09:26:00,53.2,44.8,30.19,NE,45,3.5,3.5,73,0.04,CLR,,0.09,WeatherDisplay:10.37,2013-04-29 16:26:00,
2013-04-29 09:31:00,53.6,45.2,30.19,North,0,5.4,5.4,73,0.04,CLR,,0.09,WeatherDisplay:10.37,2013-04-29 16:31:00,
2013-04-29 09:36:00,54.0,44.8,30.19,North,0,4.6,4.6,71,0.02,CLR,,0.09,WeatherDisplay:10.37,2013-04-29 16:36:00,
2013-04-29 09:41:00,54.0,43.6,30.19,NW,315,3.8,3.8,68,0.02,CLR,,0.09,WeatherDisplay:10.37,2013-04-29 16:41:00,
2013-04-29 09:46:00,54.0,43.6,30.19,North,0,3.5,3.5,68,0.02,CLR,,0.09,WeatherDisplay:10.37,2013-04-29 16:46:00,
2013-04-29 09:51:00,54.5,43.8,30.19,NE,45,4.6,4.6,67,0.01,CLR,,0.09,WeatherDisplay:10.37,2013-04-29 16:51:00,
2013-04-29 09:56:00,55.2,43.7,30.19,East,90,5.8,5.8,65,0.01,CLR,,0.09,WeatherDisplay:10.37,2013-04-29 16:56:00,
2013-04-29 10:01:00,55.9,42.7,30.19,East,90,3.5,3.5,61,0.01,CLR,,0.09,WeatherDisplay:10.37,2013-04-29 17:01:00,
2013-04-29 10:06:00,57.0,43.3,30.19,NE,45,4.6,4.6,60,0.01,CLR,,0.09,WeatherDisplay:10.37,2013-04-29 17:06:00,
2013-04-29 10:11:00,58.6,41.5,30.19,West,270,2.3,2.3,53,0.01,CLR,,0.09,WeatherDisplay:10.37,2013-04-29 17:11:00,
2013-04-29 10:16:00,59.0,35.3,30.19,NE,45,4.6,4.6,41,0.00,CLR,,0.09,WeatherDisplay:10.37,2013-04-29 17:16:00,
2013-04-29 10:21:00,59.4,31.7,30.19,East,90,5.8,5.8,35,0.00,CLR,,0.09,WeatherDisplay:10.37,2013-04-29 17:21:00,
2013-04-29 10:26:00,61.0,33.1,30.19,SW,225,3.5,3.5,35,0.00,CLR,,0.09,WeatherDisplay:10.37,2013-04-29 17:26:00,
2013-04-29 10:31:00,61.7,27.3,30.20,SE,135,3.5,3.5,27,0.00,CLR,,0.09,WeatherDisplay:10.37,2013-04-29 17:31:00,
2013-04-29 10:36:00,60.4,28.0,30.20,East,90,2.3,0.0,29,0.00,CLR,,0.09,WeatherDisplay:10.37,2013-04-29 17:36:00,
2013-04-29 10:41:00,59.7,21.8,30.20,North,0,4.6,4.6,23,0.00,CLR,,0.09,WeatherDisplay:10.37,2013-04-29 17:41:00,
2013-04-29 10:46:00,59.7,21.8,30.20,West,270,5.8,5.8,23,0.00,CLR,,0.09,WeatherDisplay:10.37,2013-04-29 17:46:00,
2013-04-29 10:51:00,59.2,18.1,30.20,North,0,10.4,10.4,20,0.00,CLR,,0.09,WeatherDisplay:10.37,2013-04-29 17:51:00,
2013-04-29 10:56:00,59.2,23.3,30.20,NW,315,3.5,3.5,25,0.00,CLR,,0.09,WeatherDisplay:10.37,2013-04-29 17:56:00,
2013-04-29 11:01:00,59.7,18.5,30.21,NE,45,12.7,12.7,20,0.00,CLR,,0.09,WeatherDisplay:10.37,2013-04-29 18:01:00,
2013-04-29 11:06:00,60.4,20.3,30.20,NW,315,6.9,6.9,21,0.00,CLR,,0.09,WeatherDisplay:10.37,2013-04-29 18:06:00,
2013-04-29 11:11:00,60.6,11.1,30.20,West,270,3.5,3.8,14,0.00,CLR,,0.09,WeatherDisplay:10.37,2013-04-29 18:11:00,
2013-04-29 11:16:00,60.8,7.8,30.20,East,90,10.4,10.4,12,0.00,CLR,,0.09,WeatherDisplay:10.37,2013-04-29 18:16:00,
2013-04-29 11:21:00,62.4,5.0,30.20,East,90,5.8,5.8,10,0.00,CLR,,0.09,WeatherDisplay:10.37,2013-04-29 18:21:00,
2013-04-29 11:26:00,63.3,5.7,30.20,NW,315,10.4,10.4,10,0.00,CLR,,0.09,WeatherDisplay:10.37,2013-04-29 18:26:00,
2013-04-29 11:31:00,63.7,6.0,30.21,NE,45,9.2,9.2,10,0.00,CLR,,0.09,WeatherDisplay:10.37,2013-04-29 18:31:00,
2013-04-29 11:36:00,63.0,5.4,30.20,NE,45,3.5,3.5,10,0.00,CLR,,0.09,WeatherDisplay:10.37,2013-04-29 18:36:00,
2013-04-29 11:41:00,62.4,5.0,30.20,NW,315,12.7,12.7,10,0.00,CLR,,0.09,WeatherDisplay:10.37,2013-04-29 18:41:00,
2013-04-29 11:46:00,63.7,6.0,30.20,West,270,8.1,8.1,10,0.00,CLR,,0.09,WeatherDisplay:10.37,2013-04-29 18:46:00,
2013-04-29 11:51:00,65.5,7.4,30.20,West,270,8.1,8.1,10,0.00,CLR,,0.09,WeatherDisplay:10.37,2013-04-29 18:51:00,
2013-04-29 11:56:00,65.8,7.7,30.20,East,90,8.1,8.1,10,0.00,CLR,,0.09,WeatherDisplay:10.37,2013-04-29 18:56:00,
2013-04-29 12:01:00,65.7,7.5,30.19,NNW,338,3.5,3.5,10,0.00,CLR,,0.09,WeatherDisplay:10.37,2013-04-29 19:01:00,
2013-04-29 12:06:00,67.5,8.9,30.19,West,270,5.8,5.8,10,0.00,CLR,,0.09,WeatherDisplay:10.37,2013-04-29 19:06:00,
2013-04-29 12:11:00,67.8,9.2,30.19,NE,45,6.9,6.9,10,0.00,CLR,,0.09,WeatherDisplay:10.37,2013-04-29 19:11:00,
2013-04-29 12:16:00,68.0,9.3,30.19,North,0,3.5,3.5,10,0.00,CLR,,0.09,WeatherDisplay:10.37,2013-04-29 19:16:00,
2013-04-29 12:21:00,68.2,9.5,30.19,NW,315,11.5,11.5,10,0.00,CLR,,0.09,WeatherDisplay:10.37,2013-04-29 19:21:00,
2013-04-29 12:26:00,66.6,8.2,30.20,North,0,11.5,11.5,10,0.00,CLR,,0.09,WeatherDisplay:10.37,2013-04-29 19:26:00,
2013-04-29 12:31:00,66.4,8.1,30.19,NW,315,5.8,5.8,10,0.00,CLR,,0.09,WeatherDisplay:10.37,2013-04-29 19:31:00,
2013-04-29 12:36:00,66.6,8.2,30.19,NW,315,8.1,8.1,10,0.00,CLR,,0.09,WeatherDisplay:10.37,2013-04-29 19:36:00,
2013-04-29 12:41:00,64.8,6.8,30.20,NE,45,5.8,5.8,10,0.00,CLR,,0.09,WeatherDisplay:10.37,2013-04-29 19:41:00,
2013-04-29 12:46:00,63.5,5.9,30.20,NE,45,8.1,8.1,10,0.00,CLR,,0.09,WeatherDisplay:10.37,2013-04-29 19:46:00,
2013-04-29 12:51:00,63.5,5.9,30.20,NW,315,17.3,17.3,10,0.00,CLR,,0.09,WeatherDisplay:10.37,2013-04-29 19:51:00,
2013-04-29 12:56:00,64.9,7.0,30.19,North,0,10.4,10.4,10,0.00,CLR,,0.09,WeatherDisplay:10.37,2013-04-29 19:56:00,
2013-04-29 13:01:00,65.3,7.2,30.19,East,90,8.1,8.1,10,0.00,CLR,,0.09,WeatherDisplay:10.37,2013-04-29 20:01:00,
2013-04-29 13:06:00,66.0,7.8,30.20,West,270,4.6,4.6,10,0.00,CLR,,0.09,WeatherDisplay:10.37,2013-04-29 20:06:00,
2013-04-29 13:11:00,66.0,7.8,30.20,West,270,12.7,12.7,10,0.00,CLR,,0.09,WeatherDisplay:10.37,2013-04-29 20:11:00,
2013-04-29 13:16:00,65.3,7.2,30.20,NW,315,15.0,15.0,10,0.00,CLR,,0.09,WeatherDisplay:10.37,2013-04-29 20:16:00,
2013-04-29 13:21:00,65.1,7.1,30.20,South,180,5.8,5.8,10,0.00,CLR,,0.09,WeatherDisplay:10.37,2013-04-29 20:21:00,
2013-04-29 13:26:00,65.1,7.1,30.20,North,0,10.4,10.4,10,0.00,CLR,,0.09,WeatherDisplay:10.37,2013-04-29 20:26:00,
2013-04-29 13:31:00,65.3,7.2,30.20,West,270,6.9,6.9,10,0.00,CLR,,0.09,WeatherDisplay:10.37,2013-04-29 20:31:00,
2013-04-29 13:36:00,65.3,7.2,30.20,East,90,10.4,10.4,10,0.00,CLR,,0.09,WeatherDisplay:10.37,2013-04-29 20:36:00,
2013-04-29 13:41:00,64.4,6.6,30.20,NW,315,12.7,12.7,10,0.00,CLR,,0.09,WeatherDisplay:10.37,2013-04-29 20:41:00,
2013-04-29 13:46:00,64.4,6.6,30.20,SW,225,11.5,11.5,10,0.00,CLR,,0.09,WeatherDisplay:10.37,2013-04-29 20:46:00,
2013-04-29 13:51:00,63.9,6.1,30.20,North,0,13.8,13.8,10,0.00,CLR,,0.09,WeatherDisplay:10.37,2013-04-29 20:51:00,
2013-04-29 13:56:00,63.9,6.1,30.20,West,270,15.0,15.0,10,0.00,CLR,,0.09,WeatherDisplay:10.37,2013-04-29 20:56:00,
2013-04-29 14:01:00,64.4,6.6,30.20,NW,315,12.7,12.7,10,0.00,CLR,,0.09,WeatherDisplay:10.37,2013-04-29 21:01:00,
2013-04-29 14:06:00,64.2,6.4,30.19,NW,315,13.8,13.8,10,0.00,CLR,,0.09,WeatherDisplay:10.37,2013-04-29 21:06:00,
2013-04-29 14:11:00,64.0,6.3,30.20,North,0,12.7,12.7,10,0.00,CLR,,0.09,WeatherDisplay:10.37,2013-04-29 21:11:00,
2013-04-29 14:16:00,63.9,6.1,30.20,SW,225,13.8,13.8,10,0.00,CLR,,0.09,WeatherDisplay:10.37,2013-04-29 21:16:00,
2013-04-29 14:21:00,64.6,6.7,30.20,North,0,8.1,8.1,10,0.00,CLR,,0.09,WeatherDisplay:10.37,2013-04-29 21:21:00,
2013-04-29 14:26:00,66.4,8.1,30.20,NW,315,4.6,4.6,10,0.00,CLR,,0.09,WeatherDisplay:10.37,2013-04-29 21:26:00,
2013-04-29 14:31:00,66.7,8.3,30.20,North,0,8.1,8.1,10,0.00,CLR,,0.09,WeatherDisplay:10.37,2013-04-29 21:31:00,
2013-04-29 14:36:00,66.6,8.2,30.20,NE,45,15.0,15.0,10,0.00,CLR,,0.09,WeatherDisplay:10.37,2013-04-29 21:36:00,
2013-04-29 14:41:00,66.4,8.1,30.19,North,0,6.9,6.9,10,0.00,CLR,,0.09,WeatherDisplay:10.37,2013-04-29 21:41:00,
2013-04-29 14:46:00,66.9,8.5,30.19,NW,315,8.1,8.1,10,0.00,CLR,,0.09,WeatherDisplay:10.37,2013-04-29 21:46:00,
2013-04-29 14:51:00,67.8,9.2,30.19,NE,45,6.9,6.9,10,0.00,CLR,,0.09,WeatherDisplay:10.37,2013-04-29 21:51:00,
2013-04-29 14:56:00,68.0,9.3,30.20,NE,45,5.8,5.8,10,0.00,CLR,,0.09,WeatherDisplay:10.37,2013-04-29 21:56:00,
2013-04-29 15:01:00,67.3,8.8,30.19,NW,315,10.4,10.4,10,0.00,CLR,,0.09,WeatherDisplay:10.37,2013-04-29 22:01:00,
2013-04-29 15:06:00,66.4,8.1,30.19,North,0,8.1,8.1,10,0.00,CLR,,0.09,WeatherDisplay:10.37,2013-04-29 22:06:00,
2013-04-29 15:11:00,67.1,8.6,30.19,NE,45,6.9,6.9,10,0.00,CLR,,0.09,WeatherDisplay:10.37,2013-04-29 22:11:00,
2013-04-29 15:16:00,67.3,8.8,30.19,West,270,8.1,8.1,10,0.00,CLR,,0.09,WeatherDisplay:10.37,2013-04-29 22:16:00,
2013-04-29 15:21:00,67.1,8.6,30.19,NW,315,5.8,5.8,10,0.00,CLR,,0.09,WeatherDisplay:10.37,2013-04-29 22:21:00,
2013-04-29 15:26:00,68.4,9.6,30.19,East,90,3.5,3.5,10,0.00,CLR,,0.09,WeatherDisplay:10.37,2013-04-29 22:26:00,
2013-04-29 15:31:00,68.0,9.3,30.19,NE,45,10.4,10.4,10,0.00,CLR,,0.09,WeatherDisplay:10.37,2013-04-29 22:31:00,
2013-04-29 15:36:00,66.0,7.8,30.19,West,270,15.0,15.0,10,0.00,CLR,,0.09,WeatherDisplay:10.37,2013-04-29 22:36:00,
2013-04-29 15:41:00,64.6,6.7,30.19,North,0,12.7,12.7,10,0.00,CLR,,0.09,WeatherDisplay:10.37,2013-04-29 22:41:00,
2013-04-29 15:46:00,62.2,4.9,30.19,North,0,16.1,16.1,10,0.00,CLR,,0.09,WeatherDisplay:10.37,2013-04-29 22:46:00,
2013-04-29 15:51:00,60.6,3.6,30.19,WNW,292,12.7,12.7,10,0.00,CLR,,0.09,WeatherDisplay:10.37,2013-04-29 22:51:00,
2013-04-29 15:56:00,59.9,3.1,30.19,NW,315,10.4,10.4,10,0.00,CLR,,0.09,WeatherDisplay:10.37,2013-04-29 22:56:00,
2013-04-29 16:01:00,59.7,2.9,30.20,NW,315,5.8,5.8,10,0.00,CLR,,0.09,WeatherDisplay:10.37,2013-04-29 23:01:00,
2013-04-29 16:06:00,59.4,2.7,30.19,North,0,10.4,10.4,10,0.00,CLR,,0.09,WeatherDisplay:10.37,2013-04-29 23:06:00,
2013-04-29 16:11:00,59.2,2.5,30.19,NW,315,6.9,6.9,10,0.00,CLR,,0.09,WeatherDisplay:10.37,2013-04-29 23:11:00,
2013-04-29 16:16:00,58.6,2.1,30.19,NW,315,10.4,10.4,10,0.00,CLR,,0.09,WeatherDisplay:10.37,2013-04-29 23:16:00,
2013-04-29 16:21:00,58.5,2.0,30.19,NW,315,6.9,6.9,10,0.00,CLR,,0.09,WeatherDisplay:10.37,2013-04-29 23:21:00,
2013-04-29 16:26:00,58.5,2.0,30.19,East,90,12.7,12.7,10,0.00,CLR,,0.09,WeatherDisplay:10.37,2013-04-29 23:26:00,
2013-04-29 16:31:00,58.3,1.8,30.19,West,270,10.4,10.4,10,0.00,CLR,,0.09,WeatherDisplay:10.37,2013-04-29 23:31:00,
2013-04-29 16:36:00,58.3,1.8,30.19,North,0,8.1,8.1,10,0.00,CLR,,0.09,WeatherDisplay:10.37,2013-04-29 23:36:00,
2013-04-29 16:41:00,58.3,1.8,30.19,NW,315,11.5,11.5,10,0.00,CLR,,0.09,WeatherDisplay:10.37,2013-04-29 23:41:00,
2013-04-29 16:46:00,58.6,2.1,30.19,North,0,4.6,4.6,10,0.00,CLR,,0.09,WeatherDisplay:10.37,2013-04-29 23:46:00,
2013-04-29 16:51:00,59.5,2.8,30.19,North,0,5.8,5.8,10,0.00,CLR,,0.09,WeatherDisplay:10.37,2013-04-29 23:51:00,
2013-04-29 16:56:00,59.7,2.9,30.19,NW,315,6.9,6.9,10,0.00,CLR,,0.09,WeatherDisplay:10.37,2013-04-29 23:56:00,
2013-04-29 17:01:00,60.3,3.4,30.19,NE,45,4.6,4.6,10,0.00,CLR,,0.09,WeatherDisplay:10.37,2013-04-30 00:01:00,
2013-04-29 17:06:00,59.5,2.8,30.19,North,0,8.1,8.1,10,0.00,CLR,,0.09,WeatherDisplay:10.37,2013-04-30 00:06:00,
2013-04-29 17:11:00,58.5,2.0,30.19,West,270,12.7,12.7,10,0.00,CLR,,0.09,WeatherDisplay:10.37,2013-04-30 00:11:00,
2013-04-29 17:16:00,57.4,1.1,30.19,NW,315,5.8,5.8,10,0.00,CLR,,0.09,WeatherDisplay:10.37,2013-04-30 00:16:00,
2013-04-29 17:21:00,57.7,1.4,30.19,North,0,10.4,10.4,10,0.00,CLR,,0.09,WeatherDisplay:10.37,2013-04-30 00:21:00,
2013-04-29 17:26:00,59.4,2.7,30.19,East,90,8.1,8.1,10,0.00,CLR,,0.09,WeatherDisplay:10.37,2013-04-30 00:26:00,
2013-04-29 17:31:00,60.8,3.8,30.19,NW,315,6.9,6.9,10,0.00,CLR,,0.09,WeatherDisplay:10.37,2013-04-30 00:31:00,
2013-04-29 17:36:00,61.3,4.2,30.19,North,0,13.8,13.8,10,0.00,CLR,,0.09,WeatherDisplay:10.37,2013-04-30 00:36:00,
2013-04-29 17:41:00,61.3,4.2,30.19,SW,225,3.5,3.8,10,0.00,CLR,,0.09,WeatherDisplay:10.37,2013-04-30 00:41:00,
2013-04-29 17:46:00,60.8,3.8,30.19,SE,135,8.1,8.1,10,0.00,CLR,,0.09,WeatherDisplay:10.37,2013-04-30 00:46:00,
2013-04-29 17:51:00,60.3,3.4,30.18,SW,225,9.2,9.2,10,0.00,CLR,,0.09,WeatherDisplay:10.37,2013-04-30 00:51:00,
2013-04-29 17:56:00,60.6,3.6,30.19,North,0,12.7,12.7,10,0.00,CLR,,0.09,WeatherDisplay:10.37,2013-04-30 00:56:00,
2013-04-29 18:01:00,61.2,4.1,30.19,NW,315,10.4,10.4,10,0.00,CLR,,0.09,WeatherDisplay:10.37,2013-04-30 01:01:00,
2013-04-29 18:06:00,61.3,4.2,30.19,South,180,8.1,8.1,10,0.00,CLR,,0.09,WeatherDisplay:10.37,2013-04-30 01:06:00,
2013-04-29 18:11:00,61.2,4.1,30.18,NE,45,10.4,10.4,10,0.00,CLR,,0.09,WeatherDisplay:10.37,2013-04-30 01:11:00,
2013-04-29 18:16:00,60.8,3.8,30.19,NW,315,9.2,9.2,10,0.00,CLR,,0.09,WeatherDisplay:10.37,2013-04-30 01:16:00,
2013-04-29 18:21:00,60.4,3.5,30.19,North,0,4.6,4.6,10,0.00,CLR,,0.09,WeatherDisplay:10.37,2013-04-30 01:21:00,
2013-04-29 18:26:00,60.6,3.6,30.18,North,0,3.5,3.5,10,0.00,CLR,,0.09,WeatherDisplay:10.37,2013-04-30 01:26:00,
2013-04-29 18:31:00,60.1,3.2,30.19,NW,315,8.1,8.1,10,0.00,CLR,,0.09,WeatherDisplay:10.37,2013-04-30 01:31:00,
2013-04-29 18:36:00,59.9,3.1,30.19,SW,225,3.5,3.5,10,0.00,CLR,,0.09,WeatherDisplay:10.37,2013-04-30 01:36:00,
2013-04-29 18:41:00,59.2,2.5,30.18,South,180,5.8,5.8,10,0.00,CLR,,0.09,WeatherDisplay:10.37,2013-04-30 01:41:00,
2013-04-29 18:46:00,59.0,2.4,30.18,NE,45,12.7,12.7,10,0.00,CLR,,0.09,WeatherDisplay:10.37,2013-04-30 01:46:00,
2013-04-29 18:51:00,59.0,2.4,30.19,NE,45,6.9,6.9,10,0.00,CLR,,0.09,WeatherDisplay:10.37,2013-04-30 01:51:00,
2013-04-29 18:56:00,59.0,2.4,30.18,North,0,11.5,11.5,10,0.00,CLR,,0.09,WeatherDisplay:10.37,2013-04-30 01:56:00,
2013-04-29 19:01:00,58.6,2.1,30.18,NE,45,11.5,11.5,10,0.00,CLR,,0.09,WeatherDisplay:10.37,2013-04-30 02:01:00,
2013-04-29 19:06:00,58.3,1.8,30.18,North,0,15.0,15.0,10,0.00,CLR,,0.09,WeatherDisplay:10.37,2013-04-30 02:06:00,
2013-04-29 19:11:00,56.1,0.2,30.18,NE,45,12.7,12.7,10,0.00,CLR,,0.09,WeatherDisplay:10.37,2013-04-30 02:11:00,
2013-04-29 19:16:00,54.7,-0.9,30.19,NE,45,5.8,5.8,10,0.00,CLR,,0.09,WeatherDisplay:10.37,2013-04-30 02:16:00,
2013-04-29 19:21:00,53.6,-1.8,30.18,NE,45,12.7,12.7,10,0.00,CLR,,0.09,WeatherDisplay:10.37,2013-04-30 02:21:00,
2013-04-29 19:26:00,53.1,-2.2,30.18,NE,45,8.1,8.1,10,0.00,CLR,,0.09,WeatherDisplay:10.37,2013-04-30 02:26:00,
2013-04-29 19:31:00,53.1,-2.2,30.19,North,0,8.1,8.1,10,0.00,CLR,,0.09,WeatherDisplay:10.37,2013-04-30 02:31:00,
2013-04-29 19:36:00,53.1,-2.2,30.19,NW,315,10.4,10.4,10,0.00,CLR,,0.09,WeatherDisplay:10.37,2013-04-30 02:36:00,
2013-04-29 19:41:00,52.2,-2.9,30.18,NE,45,11.5,11.5,10,0.00,CLR,,0.09,WeatherDisplay:10.37,2013-04-30 02:41:00,
2013-04-29 19:46:00,51.3,-3.6,30.18,NE,45,8.1,8.1,10,0.00,CLR,,0.09,WeatherDisplay:10.37,2013-04-30 02:46:00,
2013-04-29 19:51:00,50.9,-3.9,30.18,NE,45,4.6,4.6,10,0.00,CLR,,0.09,WeatherDisplay:10.37,2013-04-30 02:51:00,
2013-04-29 19:56:00,50.4,-4.3,30.18,NW,315,8.1,0.0,10,0.00,CLR,,0.09,WeatherDisplay:10.37,2013-04-30 02:56:00,
2013-04-29 20:01:00,50.0,-4.6,30.18,North,0,2.3,2.3,10,0.00,CLR,,0.09,WeatherDisplay:10.37,2013-04-30 03:01:00,
2013-04-29 20:06:00,49.5,-5.0,30.19,SE,135,5.8,5.8,10,0.00,CLR,,0.09,WeatherDisplay:10.37,2013-04-30 03:06:00,
2013-04-29 20:11:00,49.1,1.9,30.19,North,0,3.5,3.5,14,0.00,CLR,,0.09,WeatherDisplay:10.37,2013-04-30 03:11:00,
2013-04-29 20:16:00,48.9,31.1,30.19,ENE,68,5.8,5.8,50,0.00,CLR,,0.09,WeatherDisplay:10.37,2013-04-30 03:16:00,
2013-04-29 20:21:00,48.7,30.4,30.19,NE,45,8.1,8.1,49,0.00,CLR,,0.09,WeatherDisplay:10.37,2013-04-30 03:21:00,
2013-04-29 20:26:00,48.6,26.5,30.19,NE,45,8.1,8.1,42,0.00,CLR,,0.09,WeatherDisplay:10.37,2013-04-30 03:26:00,
2013-04-29 20:31:00,48.4,4.2,30.19,East,90,2.3,2.3,16,0.00,CLR,,0.09,WeatherDisplay:10.37,2013-04-30 03:31:00,
2013-04-29 20:36:00,48.0,-6.1,30.19,South,180,1.2,0.0,10,0.00,CLR,,0.09,WeatherDisplay:10.37,2013-04-30 03:36:00,
2013-04-29 20:41:00,47.7,-6.4,30.19,East,90,2.3,2.3,10,0.00,CLR,,0.09,WeatherDisplay:10.37,2013-04-30 03:41:00,
2013-04-29 20:46:00,47.3,-6.7,30.19,SW,225,3.5,3.5,10,0.00,CLR,,0.09,WeatherDisplay:10.37,2013-04-30 03:46:00,
2013-04-29 20:51:00,47.1,-6.8,30.19,North,0,3.5,3.5,10,0.00,CLR,,0.09,WeatherDisplay:10.37,2013-04-30 03:51:00,
2013-04-29 20:56:00,47.1,-6.8,30.19,NW,315,3.8,3.8,10,0.00,CLR,,0.09,WeatherDisplay:10.37,2013-04-30 03:56:00,
2013-04-29 21:01:00,47.1,-6.8,30.19,NE,45,9.2,9.2,10,0.00,CLR,,0.09,WeatherDisplay:10.37,2013-04-30 04:01:00,
2013-04-29 21:02:00,47.1,-6.8,30.19,SW,225,6.9,6.9,10,0.00,CLR,,0.09,WeatherDisplay:10.37,2013-04-30 04:02:00,
2013-04-29 21:07:00,47.3,-6.7,30.20,NE,45,5.8,5.8,10,0.00,CLR,,0.09,WeatherDisplay:10.37,2013-04-30 04:07:00,
2013-04-29 21:12:00,47.3,23.6,30.20,NE,45,2.3,0.0,39,0.00,CLR,,0.09,WeatherDisplay:10.37,2013-04-30 04:12:00,
2013-04-29 21:17:00,47.1,27.4,30.20,NE,45,4.6,4.6,46,0.00,CLR,,0.09,WeatherDisplay:10.37,2013-04-30 04:17:00,
2013-04-29 21:22:00,47.1,28.9,30.20,NE,45,5.8,5.8,49,0.00,CLR,,0.09,WeatherDisplay:10.37,2013-04-30 04:22:00,
2013-04-29 21:27:00,47.1,28.9,30.20,North,0,3.5,3.5,49,0.00,CLR,,0.09,WeatherDisplay:10.37,2013-04-30 04:27:00,
2013-04-29 21:32:00,47.1,28.4,30.20,NE,45,3.5,3.5,48,0.00,CLR,,0.09,WeatherDisplay:10.37,2013-04-30 04:32:00,
2013-04-29 21:37:00,47.1,28.9,30.20,North,0,3.5,3.5,49,0.00,CLR,,0.09,WeatherDisplay:10.37,2013-04-30 04:37:00,
2013-04-29 21:42:00,47.1,27.4,30.21,NE,45,3.5,0.0,46,0.00,CLR,,0.09,WeatherDisplay:10.37,2013-04-30 04:42:00,
2013-04-29 21:47:00,46.9,25.0,30.20,West,270,2.3,2.3,42,0.00,CLR,,0.09,WeatherDisplay:10.37,2013-04-30 04:47:00,
2013-04-29 21:52:00,46.8,10.9,30.21,North,0,5.8,5.8,23,0.00,CLR,,0.09,WeatherDisplay:10.37,2013-04-30 04:52:00,
2013-04-29 21:57:00,46.6,-0.2,30.20,West,270,4.6,0.0,14,0.00,CLR,,0.09,WeatherDisplay:10.37,2013-04-30 04:57:00,
2013-04-29 22:02:00,46.6,2.7,30.20,NE,45,4.6,4.6,16,0.00,CLR,,0.09,WeatherDisplay:10.37,2013-04-30 05:02:00,
2013-04-29 22:07:00,46.4,6.3,30.21,NE,45,2.3,2.3,19,0.00,CLR,,0.09,WeatherDisplay:10.37,2013-04-30 05:07:00,
2013-04-29 22:12:00,46.4,14.2,30.21,NE,45,1.2,0.0,27,0.00,CLR,,0.09,WeatherDisplay:10.37,2013-04-30 05:12:00,
2013-04-29 22:17:00,46.0,-7.6,30.21,East,90,2.3,0.0,10,0.00,CLR,,0.09,WeatherDisplay:10.37,2013-04-30 05:17:00,
2013-04-29 22:22:00,45.9,4.7,30.21,North,0,2.2,2.2,18,0.00,CLR,,0.09,WeatherDisplay:10.37,2013-04-30 05:22:00,
2013-04-29 22:27:00,45.7,4.5,30.21,NE,45,2.3,2.3,18,0.00,CLR,,0.09,WeatherDisplay:10.37,2013-04-30 05:27:00,
2013-04-29 22:32:00,45.7,4.5,30.21,North,0,3.5,3.5,18,0.00,CLR,,0.09,WeatherDisplay:10.37,2013-04-30 05:32:00,
2013-04-29 22:37:00,45.9,4.7,30.21,NE,45,3.5,3.5,18,0.00,CLR,,0.09,WeatherDisplay:10.37,2013-04-30 05:37:00,
2013-04-29 22:42:00,45.7,4.5,30.20,SW,225,3.5,3.5,18,0.00,CLR,,0.09,WeatherDisplay:10.37,2013-04-30 05:42:00,
2013-04-29 22:47:00,45.7,4.5,30.21,NE,45,1.2,0.0,18,0.00,CLR,,0.09,WeatherDisplay:10.37,2013-04-30 05:47:00,
2013-04-29 22:52:00,45.5,4.4,30.21,West,270,1.2,1.2,18,0.00,CLR,,0.09,WeatherDisplay:10.37,2013-04-30 05:52:00,
2013-04-29 22:57:00,45.3,4.2,30.21,NE,45,4.6,4.6,18,0.00,CLR,,0.09,WeatherDisplay:10.37,2013-04-30 05:57:00,
2013-04-29 23:02:00,45.3,4.2,30.21,West,270,3.5,0.0,18,0.00,CLR,,0.09,WeatherDisplay:10.37,2013-04-30 06:02:00,
2013-04-29 23:07:00,45.0,3.9,30.21,NE,45,3.1,3.1,18,0.00,CLR,,0.09,WeatherDisplay:10.37,2013-04-30 06:07:00,
2013-04-29 23:12:00,45.0,3.9,30.21,North,0,1.2,0.0,18,0.00,CLR,,0.09,WeatherDisplay:10.37,2013-04-30 06:12:00,
2013-04-29 23:17:00,44.8,3.8,30.21,NW,315,1.2,0.0,18,0.00,CLR,,0.09,WeatherDisplay:10.37,2013-04-30 06:17:00,
2013-04-29 23:22:00,44.6,3.6,30.21,West,270,1.2,0.0,18,0.00,CLR,,0.09,WeatherDisplay:10.37,2013-04-30 06:22:00,
2013-04-29 23:27:00,44.4,3.5,30.21,NW,315,1.2,0.0,18,0.00,CLR,,0.09,WeatherDisplay:10.37,2013-04-30 06:27:00,
2013-04-29 23:32:00,44.2,3.3,30.21,NW,315,3.5,0.0,18,0.00,CLR,,0.09,WeatherDisplay:10.37,2013-04-30 06:32:00,
2013-04-29 23:37:00,43.9,3.0,30.21,West,270,1.2,0.0,18,0.00,CLR,,0.09,WeatherDisplay:10.37,2013-04-30 06:37:00,
2013-04-29 23:42:00,43.5,2.7,30.22,South,180,1.2,0.0,18,0.00,CLR,,0.09,WeatherDisplay:10.37,2013-04-30 06:42:00,
2013-04-29 23:47:00,43.3,2.6,30.22,West,270,1.2,0.0,18,0.00,CLR,,0.09,WeatherDisplay:10.37,2013-04-30 06:47:00,
2013-04-29 23:52:00,43.0,2.3,30.22,NE,45,3.5,0.0,18,0.00,CLR,,0.09,WeatherDisplay:10.37,2013-04-30 06:52:00,
2013-04-29 23:57:00,42.8,-10.2,30.22,SE,135,1.2,0.0,10,0.00,CLR,,0.09,WeatherDisplay:10.37,2013-04-30 06:57:00,